Regional Weather Roundup
Issued by NWS

Home | Current Version | Previous Version | Text Only | Print | Product List | Glossary Off
Versions: 1 2 3 4 5 6 7 8 9 10 11 12 13 14 15 16 17 18 19 20 21 22 23 24 25 26 27 28 29 30 31 32 33 34 35 36 37 38 39 40 41 42 43 44 45 46 47 48 49 50

000
ASUS45 KABQ 012210
RWRNM
NEW MEXICO REGIONAL WEATHER ROUNDUP
NATIONAL WEATHER SERVICE ALBUQUERQUE NM
400 PM MDT TUE SEP 01 2015

NOTE: "FAIR" MEANS FEW OR NO CLOUDS BELOW 12,000 FEET AGL WITH NO
       SIGNIFICANT WEATHER OR OBSTRUCTIONS TO VISION.

      THIS PRODUCT IS RELEASED AS TWO VERSIONS.  ONE VERSION NEAR
      THE TOP OF THE HOUR CONTAINING PRELIMINARY DATA FROM ALBUQUERQUE
      AND OTHER STATIONS.  A FINAL VERSION WITH ADDITIONAL DATA IS
      ISSUED ABOUT 10 MINUTES AFTER THE HOUR.

NMZ501-503-504-510>518-012300-
NORTHWEST PLATEAU/NORTHCENTRAL MOUNTAINS

CITY           SKY/WX    TMP DP  RH WIND       PRES   REMARKS
FARMINGTON     SUNNY     87  43  21 S12G17    30.10F
LOS ALAMOS     PTSUNNY   73  46  38 N13       30.28F
SANTA FE       PTSUNNY   84  43  23 N12       30.19F
TAOS           CLOUDY    72  46  40 W10       30.28S
ANGEL FIRE     CLOUDY    68  43  40 W8        30.35S

$$
NMZ402-403-502-505>509-012300-
WESTCENTRAL MOUNTAINS/SOUTHWEST MOUNTAINS

CITY           SKY/WX    TMP DP  RH WIND       PRES   REMARKS
GALLUP         PTSUNNY   81  43  26 SW9       30.20F
GRANTS         MOSUNNY   80  45  29 W5        30.23F
SILVER CITY      N/A     82  46  28 W17G24    30.18S

$$
NMZ407-409-411-412-012300-
SOUTHERN DESERTS

CITY           SKY/WX    TMP DP  RH WIND       PRES   REMARKS
LORDSBURG      FAIR      90  50  25 W8        30.07F
DEMING         SUNNY     93  43  17 VRB5      30.05F
LAS CRUCES     MOSUNNY   94  37  13 CALM      30.06F
HOLLOMAN AFB   MOSUNNY   94  41  15 VRB2      30.00F
ALAMOGORDO     SUNNY     95  37  13 W7        30.02F
T OR C         PTSUNNY   89  45  21 N8        30.07F

$$
NMZ519>523-012300-
CENTRAL VALLEYS/CENTRAL HIGHLANDS

CITY           SKY/WX    TMP DP  RH WIND       PRES   REMARKS
ALBUQUERQUE    PTSUNNY   85  44  23 W7        30.13F
DOUBLE EAGLE   PTSUNNY   84  46  26 CALM      30.17F
MORIARTY ARPT  FAIR      86  37  17 W5        30.19F
CLINES CORNERS PTSUNNY   76  41  28 S10       30.25F
BELEN          FAIR      76  55  47 CALM      30.15F
SOCORRO        PTSUNNY   85  45  24 W6        30.11R

$$
NMZ524>526-539-540-012300-
SOUTHCENTRAL MOUNTAINS

CITY           SKY/WX    TMP DP  RH WIND       PRES   REMARKS
RUIDOSO        MOSUNNY   79  46  31 MISG      30.26S

$$
NMZ527>531-012300-
NORTHEAST HIGHLANDS/NORTHEAST PLAINS

CITY           SKY/WX    TMP DP  RH WIND       PRES   REMARKS
LAS VEGAS      PTSUNNY   75  47  36 N10       30.23S
RATON          CLOUDY    81  45  28 SW25G35   30.15F
CLAYTON        PTSUNNY   89  52  28 SE8       30.06F

$$
NMZ532>537-012300-
EASTCENTRAL PLAINS

CITY           SKY/WX    TMP DP  RH WIND       PRES   REMARKS
TUCUMCARI      SUNNY     96  47  18 SW14      29.99F
CANNON AFB     SUNNY     92  52  25 S18G24    30.04F
CLOVIS AIRPORT SUNNY     91  54  27 S17G24    30.07F

$$
NMZ028-029-538-012300-
SOUTHEAST PLAINS

CITY           SKY/WX    TMP DP  RH WIND       PRES   REMARKS
ROSWELL        SUNNY     97  48  18 SE15G24   29.99F
ARTESIA        SUNNY     95  50  21 SE17      30.00F
CARLSBAD       SUNNY     97  47  18 SE12G20   29.97
HOBBS          SUNNY     91  50  24 SE9G17    30.04


$$


USA.gov is the U.S. government's official web portal to all federal, state and local government web resources and services.